Find Starlink 36706

NORAD ID: 67657 Int'l Des: 2026-022 Owner: SPXS Country: US Constellation: starlink operational
LEOCIRCULARRETROGRADE

Current View

Loading 3D Globe...

About Starlink 36706

Description loading...

Upcoming Passes

Passes for default location (London). Set your location on the main map for personalized predictions.

Altitude History

Loading altitude history...

Two-Line Element Set

1 67657U 26022K 26145.05736800 .00004539 00000-0 14287-3 0 9996
2 67657 97.2863 178.2752 0000159 284.9080 75.2145 15.33438319 17277
Epoch: May 25, 2026 • Age: 31 hours

Current Status

Altitude 471.1 km
Velocity 7.63 km/s
Sub-Earth Point -12.76°S, 167.62°E
Launch Date Feb 2, 2026
Age 0.3 years
Type internet

Technical Details

Classification Payload
Mass 575.00 kg
Dry Mass 530.00 kg
Total Mass 575.00 kg
Length 0.30 m
Diameter 4.10 m
Span 29.00 m
Shape Box + pan
Manufacturer SPXS
Bus Type Starlink V2MO
Phase Status In Orbit
Owner/State SPXS/US

Most Searched